contact:dominique.lefevre@mio.osupytheas.fr, maurice.libes@osupytheas.fr, didier.mallarino@osupytheas.fr
Project:EMSO http://www.emso-fr.org/EMSO-France
Depth: 2436.0 m
Title:EMSO Ligure Ouest : Data MII capteur CSTAR
DateTime,Latitude,Longitude,Instrument_Serial,Reference_Counts,Signal_Counts,Corrected_Signal_raw_counts,Calculated_Beam_c_inverse_meters,Internal_thermistor_counts
DateTime,Latitude,Longitude,Instrument_Serial,Reference_Counts,Signal_Counts,Corrected_Signal_raw_counts,Calculated_Beam_c_inverse_meters,Internal_thermistor_counts
2019-10-03T00:03:00,42.805,6.029,CST-1368DR,7702,10782,15346,0.070,551
2019-10-03T00:06:01,42.805,6.029,CST-1368DR,7702,10783,15347,0.070,551
2019-10-03T00:09:03,42.805,6.029,CST-1368DR,7702,10775,15336,0.072,551
2019-10-03T00:12:05,42.805,6.029,CST-1368DR,7702,10785,15351,0.068,551
2019-10-03T00:15:06,42.805,6.029,CST-1368DR,7702,10783,15347,0.070,551
2019-10-03T00:18:08,42.805,6.029,CST-1368DR,7702,10785,15350,0.069,551
2019-10-03T00:21:09,42.805,6.029,CST-1368DR,7702,10785,15351,0.068,551
2019-10-03T00:24:11,42.805,6.029,CST-1368DR,7702,10784,15349,0.069,551
2019-10-03T00:27:13,42.805,6.029,CST-1368DR,7702,10780,15343,0.071,551
2019-10-03T00:30:14,42.805,6.029,CST-1368DR,7702,10785,15350,0.069,551
2019-10-03T00:33:16,42.805,6.029,CST-1368DR,7702,10784,15349,0.069,551
2019-10-03T00:36:18,42.805,6.029,CST-1368DR,7697,10040,14298,0.353,551
2019-10-03T00:39:19,42.805,6.029,CST-1368DR,7702,10786,15352,0.068,550
2019-10-03T00:42:21,42.805,6.029,CST-1368DR,7702,10786,15352,0.068,551
2019-10-03T00:45:23,42.805,6.029,CST-1368DR,7702,10786,15352,0.068,551
2019-10-03T00:48:24,42.805,6.029,CST-1368DR,7702,10784,15349,0.069,551
2019-10-03T00:51:26,42.805,6.029,CST-1368DR,7702,10780,15343,0.071,551
2019-10-03T00:54:27,42.805,6.029,CST-1368DR,7702,10785,15350,0.069,551
2019-10-03T00:57:29,42.805,6.029,CST-1368DR,7702,10785,15351,0.068,551
2019-10-03T01:00:31,42.805,6.029,CST-1368DR,7702,10784,15348,0.069,551
2019-10-03T01:03:33,42.805,6.029,CST-1368DR,7702,10784,15348,0.069,551
2019-10-03T01:06:35,42.805,6.029,CST-1368DR,7702,10757,15310,0.079,551
2019-10-03T01:09:36,42.805,6.029,CST-1368DR,7702,10786,15352,0.068,551
2019-10-03T01:12:38,42.805,6.029,CST-1368DR,7702,10784,15349,0.069,551
2019-10-03T01:15:39,42.805,6.029,CST-1368DR,7702,10786,15351,0.068,551
2019-10-03T01:18:41,42.805,6.029,CST-1368DR,7702,10784,15349,0.069,551
2019-10-03T01:21:43,42.805,6.029,CST-1368DR,7702,10785,15351,0.068,551
2019-10-03T01:24:44,42.805,6.029,CST-1368DR,7702,10786,15352,0.068,551
2019-10-03T01:27:46,42.805,6.029,CST-1368DR,7702,10786,15351,0.068,551
2019-10-03T01:30:48,42.805,6.029,CST-1368DR,7702,10783,15348,0.069,551
2019-10-03T01:33:49,42.805,6.029,CST-1368DR,7702,10785,15350,0.069,551
2019-10-03T01:36:51,42.805,6.029,CST-1368DR,7702,10785,15350,0.069,551
2019-10-03T01:39:53,42.805,6.029,CST-1368DR,7702,10763,15319,0.077,551
2019-10-03T01:42:54,42.805,6.029,CST-1368DR,7702,10785,15350,0.069,551
2019-10-03T01:45:56,42.805,6.029,CST-1368DR,7702,10786,15352,0.068,551
2019-10-03T01:48:58,42.805,6.029,CST-1368DR,7701,10784,15351,0.068,550
2019-10-03T01:51:59,42.805,6.029,CST-1368DR,7701,10784,15350,0.069,551
2019-10-03T01:55:01,42.805,6.029,CST-1368DR,7701,10782,15348,0.069,551
2019-10-03T01:58:02,42.805,6.029,CST-1368DR,7701,10784,15351,0.068,551
2019-10-03T02:01:04,42.805,6.029,CST-1368DR,7701,10782,15347,0.070,550
2019-10-03T02:04:06,42.805,6.029,CST-1368DR,7701,10783,15349,0.069,551
2019-10-03T02:07:07,42.805,6.029,CST-1368DR,7701,10781,15346,0.070,551
2019-10-03T02:10:09,42.805,6.029,CST-1368DR,7701,10785,15351,0.068,551
2019-10-03T02:13:11,42.805,6.029,CST-1368DR,7701,10785,15352,0.068,551
2019-10-03T02:16:12,42.805,6.029,CST-1368DR,7701,10783,15349,0.069,551
2019-10-03T02:19:14,42.805,6.029,CST-1368DR,7701,10784,15351,0.068,551
2019-10-03T02:22:16,42.805,6.029,CST-1368DR,7701,10783,15350,0.069,551
2019-10-03T02:25:17,42.805,6.029,CST-1368DR,7701,10785,15351,0.068,551
2019-10-03T02:28:19,42.805,6.029,CST-1368DR,7701,10783,15349,0.069,551
2019-10-03T02:31:21,42.805,6.029,CST-1368DR,7701,10782,15347,0.070,551
2019-10-03T02:34:22,42.805,6.029,CST-1368DR,7701,10785,15351,0.068,551
2019-10-03T02:37:24,42.805,6.029,CST-1368DR,7701,10781,15346,0.070,550
2019-10-03T02:40:26,42.805,6.029,CST-1368DR,7701,10782,15348,0.069,551
2019-10-03T02:43:27,42.805,6.029,CST-1368DR,7701,10784,15350,0.069,551
2019-10-03T02:46:29,42.805,6.029,CST-1368DR,7701,10782,15348,0.069,551
2019-10-03T02:49:30,42.805,6.029,CST-1368DR,7701,10783,15349,0.069,551
2019-10-03T02:52:32,42.805,6.029,CST-1368DR,7701,10785,15352,0.068,551
2019-10-03T02:55:34,42.805,6.029,CST-1368DR,7701,10781,15347,0.070,551
2019-10-03T02:58:36,42.805,6.029,CST-1368DR,7701,10784,15350,0.069,551
2019-10-03T03:01:38,42.805,6.029,CST-1368DR,7701,10784,15351,0.068,551
2019-10-03T03:04:39,42.805,6.029,CST-1368DR,7696,10323,14703,0.241,551
2019-10-03T03:07:41,42.805,6.029,CST-1368DR,7701,10782,15348,0.069,551
2019-10-03T03:10:43,42.805,6.029,CST-1368DR,7701,10783,15349,0.069,551
2019-10-03T03:13:44,42.805,6.029,CST-1368DR,7701,10783,15349,0.069,551
2019-10-03T03:16:46,42.805,6.029,CST-1368DR,7701,10784,15350,0.069,551
2019-10-03T03:19:48,42.805,6.029,CST-1368DR,7701,10700,15231,0.100,551
2019-10-03T03:22:49,42.805,6.029,CST-1368DR,7701,10783,15350,0.069,550
2019-10-03T03:25:51,42.805,6.029,CST-1368DR,7701,10784,15350,0.069,551
2019-10-03T03:28:52,42.805,6.029,CST-1368DR,7701,10784,15351,0.068,551
2019-10-03T03:31:54,42.805,6.029,CST-1368DR,7701,10782,15348,0.069,551
2019-10-03T03:34:56,42.805,6.029,CST-1368DR,7698,10441,14868,0.196,551
2019-10-03T03:37:57,42.805,6.029,CST-1368DR,7701,10782,15348,0.069,550
2019-10-03T03:40:59,42.805,6.029,CST-1368DR,7701,10783,15349,0.069,550
2019-10-03T03:44:01,42.805,6.029,CST-1368DR,7701,10784,15350,0.069,551
2019-10-03T03:47:02,42.805,6.029,CST-1368DR,7701,10777,15340,0.071,551
2019-10-03T03:50:04,42.805,6.029,CST-1368DR,7701,10779,15343,0.071,551
2019-10-03T03:53:05,42.805,6.029,CST-1368DR,7701,10783,15349,0.069,551
2019-10-03T03:56:07,42.805,6.029,CST-1368DR,7701,10784,15350,0.069,551
2019-10-03T03:59:09,42.805,6.029,CST-1368DR,7701,10784,15350,0.069,551
2019-10-03T04:02:10,42.805,6.029,CST-1368DR,7701,10782,15348,0.069,551
2019-10-03T04:05:12,42.805,6.029,CST-1368DR,7701,10783,15349,0.069,551
2019-10-03T04:08:14,42.805,6.029,CST-1368DR,7700,10778,15344,0.070,551
2019-10-03T04:11:15,42.805,6.029,CST-1368DR,7701,10781,15346,0.070,551
2019-10-03T04:14:17,42.805,6.029,CST-1368DR,7701,10782,15348,0.069,551
2019-10-03T04:17:19,42.805,6.029,CST-1368DR,7700,10782,15350,0.069,550
2019-10-03T04:20:20,42.805,6.029,CST-1368DR,7700,10783,15351,0.068,551
2019-10-03T04:23:22,42.805,6.029,CST-1368DR,7700,10782,15350,0.069,551
2019-10-03T04:26:23,42.805,6.029,CST-1368DR,7700,10783,15351,0.068,550
2019-10-03T04:29:25,42.805,6.029,CST-1368DR,7700,10783,15351,0.068,551
2019-10-03T04:32:27,42.805,6.029,CST-1368DR,7700,10783,15351,0.068,550
2019-10-03T04:35:28,42.805,6.029,CST-1368DR,7700,10782,15349,0.069,551
2019-10-03T04:38:30,42.805,6.029,CST-1368DR,7700,10780,15347,0.070,551
2019-10-03T04:41:32,42.805,6.029,CST-1368DR,7700,10781,15348,0.069,551
2019-10-03T04:44:33,42.805,6.029,CST-1368DR,7700,10780,15346,0.070,551
2019-10-03T04:47:35,42.805,6.029,CST-1368DR,7700,10781,15348,0.069,551
2019-10-03T04:50:37,42.805,6.029,CST-1368DR,7700,10780,15346,0.070,551
2019-10-03T04:53:38,42.805,6.029,CST-1368DR,7700,10782,15350,0.069,551
2019-10-03T04:56:40,42.805,6.029,CST-1368DR,7700,10780,15347,0.070,550
2019-10-03T04:59:42,42.805,6.029,CST-1368DR,7700,10782,15349,0.069,551
2019-10-03T05:02:43,42.805,6.029,CST-1368DR,7700,10783,15351,0.068,551
2019-10-03T05:05:45,42.805,6.029,CST-1368DR,7700,10782,15350,0.069,550
2019-10-03T05:08:47,42.805,6.029,CST-1368DR,7700,10783,15351,0.068,551
2019-10-03T05:11:49,42.805,6.029,CST-1368DR,7700,10782,15350,0.069,551
2019-10-03T05:14:51,42.805,6.029,CST-1368DR,7700,10782,15349,0.069,550
2019-10-03T05:17:52,42.805,6.029,CST-1368DR,7700,10782,15350,0.069,551
2019-10-03T05:20:54,42.805,6.029,CST-1368DR,7700,10784,15352,0.068,551
2019-10-03T05:23:56,42.805,6.029,CST-1368DR,7700,10782,15349,0.069,551
2019-10-03T05:26:57,42.805,6.029,CST-1368DR,7700,10782,15349,0.069,551
2019-10-03T05:29:59,42.805,6.029,CST-1368DR,7700,10782,15349,0.069,551
2019-10-03T05:33:01,42.805,6.029,CST-1368DR,7700,10779,15346,0.070,551
2019-10-03T05:36:02,42.805,6.029,CST-1368DR,7700,10783,15351,0.068,551
2019-10-03T05:39:04,42.805,6.029,CST-1368DR,7700,10781,15349,0.069,551
2019-10-03T05:42:06,42.805,6.029,CST-1368DR,7700,10781,15348,0.069,550
2019-10-03T05:45:07,42.805,6.029,CST-1368DR,7700,10780,15347,0.070,551
2019-10-03T05:48:09,42.805,6.029,CST-1368DR,7700,10784,15352,0.068,551
2019-10-03T05:51:10,42.805,6.029,CST-1368DR,7700,10781,15348,0.069,551
2019-10-03T05:54:12,42.805,6.029,CST-1368DR,7700,10783,15351,0.068,551
2019-10-03T05:57:14,42.805,6.029,CST-1368DR,7700,10781,15348,0.069,551
2019-10-03T06:00:15,42.805,6.029,CST-1368DR,7700,10783,15351,0.068,551
2019-10-03T06:03:17,42.805,6.029,CST-1368DR,7700,10782,15350,0.069,551
2019-10-03T06:06:19,42.805,6.029,CST-1368DR,7700,10782,15350,0.069,551
2019-10-03T06:09:20,42.805,6.029,CST-1368DR,7700,10783,15351,0.068,551
2019-10-03T06:12:22,42.805,6.029,CST-1368DR,7700,10782,15349,0.069,551
2019-10-03T06:15:24,42.805,6.029,CST-1368DR,7700,10782,15349,0.069,551
2019-10-03T06:18:25,42.805,6.029,CST-1368DR,7700,10782,15349,0.069,551
2019-10-03T06:21:27,42.805,6.029,CST-1368DR,7700,10782,15349,0.069,550
2019-10-03T06:24:28,42.805,6.029,CST-1368DR,7700,10782,15350,0.069,551
2019-10-03T06:27:30,42.805,6.029,CST-1368DR,7700,10780,15347,0.070,551
2019-10-03T06:30:32,42.805,6.029,CST-1368DR,7700,10782,15350,0.069,551
2019-10-03T06:33:33,42.805,6.029,CST-1368DR,7700,10782,15350,0.069,551
2019-10-03T06:36:35,42.805,6.029,CST-1368DR,7700,10780,15346,0.070,551
2019-10-03T06:39:37,42.805,6.029,CST-1368DR,7700,10782,15350,0.069,551
2019-10-03T06:42:38,42.805,6.029,CST-1368DR,7700,10782,15350,0.069,551
2019-10-03T06:45:40,42.805,6.029,CST-1368DR,7700,10782,15350,0.069,551
2019-10-03T06:48:42,42.805,6.029,CST-1368DR,7700,10781,15349,0.069,551
2019-10-03T06:51:43,42.805,6.029,CST-1368DR,7700,10781,15349,0.069,551
2019-10-03T06:54:45,42.805,6.029,CST-1368DR,7700,10781,15349,0.069,551
2019-10-03T06:57:46,42.805,6.029,CST-1368DR,7700,10782,15349,0.069,551
2019-10-03T07:00:48,42.805,6.029,CST-1368DR,7700,10782,15349,0.069,551
2019-10-03T07:03:50,42.805,6.029,CST-1368DR,7700,10782,15350,0.069,550
2019-10-03T07:06:51,42.805,6.029,CST-1368DR,7700,10782,15349,0.069,551
2019-10-03T07:09:53,42.805,6.029,CST-1368DR,7700,10781,15348,0.069,551
2019-10-03T07:12:55,42.805,6.029,CST-1368DR,7700,10782,15349,0.069,551
2019-10-03T07:15:56,42.805,6.029,CST-1368DR,7700,10782,15349,0.069,551
2019-10-03T07:18:58,42.805,6.029,CST-1368DR,7700,10779,15345,0.070,551
2019-10-03T07:21:59,42.805,6.029,CST-1368DR,7700,10776,15340,0.071,551
2019-10-03T07:25:01,42.805,6.029,CST-1368DR,7700,10779,15346,0.070,551
2019-10-03T07:28:03,42.805,6.029,CST-1368DR,7700,10781,15348,0.069,550
2019-10-03T07:31:04,42.805,6.029,CST-1368DR,7699,10780,15349,0.069,551
2019-10-03T07:34:06,42.805,6.029,CST-1368DR,7699,10781,15350,0.069,551
2019-10-03T07:37:08,42.805,6.029,CST-1368DR,7699,10781,15350,0.069,551
2019-10-03T07:40:09,42.805,6.029,CST-1368DR,7699,10782,15352,0.068,551
2019-10-03T07:43:11,42.805,6.029,CST-1368DR,7699,10783,15353,0.068,551
2019-10-03T07:46:13,42.805,6.029,CST-1368DR,7699,10782,15351,0.068,551
2019-10-03T07:49:14,42.805,6.029,CST-1368DR,7699,10780,15349,0.069,551
2019-10-03T07:52:16,42.805,6.029,CST-1368DR,7699,10782,15351,0.068,551
2019-10-03T07:55:18,42.805,6.029,CST-1368DR,7697,10482,14927,0.180,551
2019-10-03T07:58:19,42.805,6.029,CST-1368DR,7699,10782,15351,0.068,551
2019-10-03T08:01:21,42.805,6.029,CST-1368DR,7699,10781,15350,0.069,551
2019-10-03T08:04:23,42.805,6.029,CST-1368DR,7699,10780,15349,0.069,551
2019-10-03T08:07:24,42.805,6.029,CST-1368DR,7699,10781,15349,0.069,551
2019-10-03T08:10:26,42.805,6.029,CST-1368DR,7699,10778,15345,0.070,551
2019-10-03T08:13:27,42.805,6.029,CST-1368DR,7699,10777,15344,0.070,551
2019-10-03T08:16:29,42.805,6.029,CST-1368DR,7699,10779,15347,0.070,551
2019-10-03T08:19:31,42.805,6.029,CST-1368DR,7698,10699,15236,0.099,551
2019-10-03T08:22:32,42.805,6.029,CST-1368DR,7699,10780,15349,0.069,551
2019-10-03T08:25:34,42.805,6.029,CST-1368DR,7699,10781,15350,0.069,551
2019-10-03T08:28:36,42.805,6.029,CST-1368DR,7699,10779,15347,0.070,551
2019-10-03T08:31:38,42.805,6.029,CST-1368DR,7699,10780,15349,0.069,551
2019-10-03T08:34:40,42.805,6.029,CST-1368DR,7699,10780,15349,0.069,551
2019-10-03T08:37:41,42.805,6.029,CST-1368DR,7699,10779,15348,0.069,550
2019-10-03T08:40:43,42.805,6.029,CST-1368DR,7699,10781,15350,0.069,550
2019-10-03T08:43:45,42.805,6.029,CST-1368DR,7699,10780,15349,0.069,551
2019-10-03T08:46:46,42.805,6.029,CST-1368DR,7699,10781,15350,0.069,551
2019-10-03T08:49:48,42.805,6.029,CST-1368DR,7699,10781,15350,0.069,551
2019-10-03T08:52:49,42.805,6.029,CST-1368DR,7699,10778,15345,0.070,551
2019-10-03T08:55:51,42.805,6.029,CST-1368DR,7699,10779,15347,0.070,550
2019-10-03T08:58:53,42.805,6.029,CST-1368DR,7699,10780,15349,0.069,551
2019-10-03T09:01:54,42.805,6.029,CST-1368DR,7699,10781,15349,0.069,551
2019-10-03T09:04:56,42.805,6.029,CST-1368DR,7699,10780,15349,0.069,551
2019-10-03T09:07:58,42.805,6.029,CST-1368DR,7699,10778,15346,0.070,550
2019-10-03T09:10:59,42.805,6.029,CST-1368DR,7699,10780,15349,0.069,551
2019-10-03T09:14:01,42.805,6.029,CST-1368DR,7699,10780,15349,0.069,551
2019-10-03T09:17:03,42.805,6.029,CST-1368DR,7699,10779,15348,0.069,551
2019-10-03T09:20:04,42.805,6.029,CST-1368DR,7699,10778,15346,0.070,551
2019-10-03T09:23:06,42.805,6.029,CST-1368DR,7699,10779,15347,0.070,551
2019-10-03T09:26:08,42.805,6.029,CST-1368DR,7699,10771,15336,0.072,551
2019-10-03T09:29:09,42.805,6.029,CST-1368DR,7699,10775,15341,0.071,551
2019-10-03T09:32:11,42.805,6.029,CST-1368DR,7698,10778,15347,0.070,551
2019-10-03T09:35:12,42.805,6.029,CST-1368DR,7699,10778,15345,0.070,551
2019-10-03T09:38:14,42.805,6.029,CST-1368DR,7699,10779,15347,0.070,550
2019-10-03T09:41:16,42.805,6.029,CST-1368DR,7699,10778,15345,0.070,551
2019-10-03T09:44:17,42.805,6.029,CST-1368DR,7698,10778,15348,0.069,551
2019-10-03T09:47:19,42.805,6.029,CST-1368DR,7698,10779,15349,0.069,551
2019-10-03T09:50:21,42.805,6.029,CST-1368DR,7699,10778,15346,0.070,550
2019-10-03T09:53:22,42.805,6.029,CST-1368DR,7699,10778,15346,0.070,550
2019-10-03T09:56:24,42.805,6.029,CST-1368DR,7698,10779,15349,0.069,551
2019-10-03T09:59:25,42.805,6.029,CST-1368DR,7698,10775,15343,0.071,551
2019-10-03T10:02:27,42.805,6.029,CST-1368DR,7698,10772,15339,0.072,551
2019-10-03T10:05:29,42.805,6.029,CST-1368DR,7698,10778,15347,0.070,551
2019-10-03T10:08:30,42.805,6.029,CST-1368DR,7698,10778,15348,0.069,551
2019-10-03T10:11:32,42.805,6.029,CST-1368DR,7698,10778,15347,0.070,551
2019-10-03T10:14:34,42.805,6.029,CST-1368DR,7698,10779,15349,0.069,551
2019-10-03T10:17:35,42.805,6.029,CST-1368DR,7698,10778,15347,0.070,551
2019-10-03T10:20:37,42.805,6.029,CST-1368DR,7698,10778,15347,0.070,551
2019-10-03T10:23:39,42.805,6.029,CST-1368DR,7698,10780,15350,0.069,551
2019-10-03T10:26:40,42.805,6.029,CST-1368DR,7698,10778,15348,0.069,551
2019-10-03T10:29:42,42.805,6.029,CST-1368DR,7698,10778,15348,0.069,551
2019-10-03T10:32:43,42.805,6.029,CST-1368DR,7698,10779,15348,0.069,551
2019-10-03T10:35:45,42.805,6.029,CST-1368DR,7698,10780,15350,0.069,551
2019-10-03T10:38:47,42.805,6.029,CST-1368DR,7698,10777,15346,0.070,551
2019-10-03T10:41:48,42.805,6.029,CST-1368DR,7698,10778,15347,0.070,551
2019-10-03T10:44:50,42.805,6.029,CST-1368DR,7698,10777,15346,0.070,551
2019-10-03T10:47:52,42.805,6.029,CST-1368DR,7698,10776,15345,0.070,551
2019-10-03T10:50:53,42.805,6.029,CST-1368DR,7698,10779,15348,0.069,551
2019-10-03T10:53:55,42.805,6.029,CST-1368DR,7698,10776,15344,0.070,551
2019-10-03T10:56:57,42.805,6.029,CST-1368DR,7698,10779,15349,0.069,551
2019-10-03T10:59:58,42.805,6.029,CST-1368DR,7698,10777,15347,0.070,551
2019-10-03T11:03:00,42.805,6.029,CST-1368DR,7698,10778,15347,0.070,551
2019-10-03T11:06:01,42.805,6.029,CST-1368DR,7698,10778,15347,0.070,551
2019-10-03T11:09:03,42.805,6.029,CST-1368DR,7697,10757,15320,0.077,551
2019-10-03T11:12:05,42.805,6.029,CST-1368DR,7698,10776,15345,0.070,551
2019-10-03T11:15:06,42.805,6.029,CST-1368DR,7698,10777,15347,0.070,551
2019-10-03T11:18:08,42.805,6.029,CST-1368DR,7698,10778,15348,0.069,551
2019-10-03T11:21:10,42.805,6.029,CST-1368DR,7698,10775,15343,0.071,551
2019-10-03T11:24:11,42.805,6.029,CST-1368DR,7698,10776,15345,0.070,550
2019-10-03T11:27:13,42.805,6.029,CST-1368DR,7698,10778,15347,0.070,550
2019-10-03T11:30:15,42.805,6.029,CST-1368DR,7697,10718,15264,0.091,551
2019-10-03T11:33:16,42.805,6.029,CST-1368DR,7698,10778,15348,0.069,551
2019-10-03T11:36:18,42.805,6.029,CST-1368DR,7698,10778,15347,0.070,551
2019-10-03T11:39:19,42.805,6.029,CST-1368DR,7698,10778,15348,0.069,551
2019-10-03T11:42:21,42.805,6.029,CST-1368DR,7698,10778,15348,0.069,551
2019-10-03T11:45:23,42.805,6.029,CST-1368DR,7698,10777,15346,0.070,551
2019-10-03T11:48:24,42.805,6.029,CST-1368DR,7698,10777,15347,0.070,551
2019-10-03T11:51:26,42.805,6.029,CST-1368DR,7698,10777,15346,0.070,551
2019-10-03T11:54:28,42.805,6.029,CST-1368DR,7698,10777,15346,0.070,551
2019-10-03T11:57:29,42.805,6.029,CST-1368DR,7698,10779,15348,0.069,551
2019-10-03T12:00:31,42.805,6.029,CST-1368DR,7698,10778,15347,0.070,551
2019-10-03T12:03:33,42.805,6.029,CST-1368DR,7698,10778,15347,0.070,550
2019-10-03T12:06:34,42.805,6.029,CST-1368DR,7698,10777,15346,0.070,551
2019-10-03T12:09:36,42.805,6.029,CST-1368DR,7698,10778,15347,0.070,551
2019-10-03T12:12:38,42.805,6.029,CST-1368DR,7698,10775,15343,0.071,551
2019-10-03T12:15:39,42.805,6.029,CST-1368DR,7698,10777,15346,0.070,551
2019-10-03T12:18:41,42.805,6.029,CST-1368DR,7698,10777,15346,0.070,551
2019-10-03T12:21:43,42.805,6.029,CST-1368DR,7698,10776,15345,0.070,551
2019-10-03T12:24:44,42.805,6.029,CST-1368DR,7697,10695,15231,0.100,551
2019-10-03T12:27:46,42.805,6.029,CST-1368DR,7698,10773,15340,0.071,551
2019-10-03T12:30:48,42.805,6.029,CST-1368DR,7697,10776,15347,0.070,551
2019-10-03T12:33:49,42.805,6.029,CST-1368DR,7697,10775,15346,0.070,551
2019-10-03T12:36:51,42.805,6.029,CST-1368DR,7697,10777,15348,0.069,551
2019-10-03T12:39:52,42.805,6.029,CST-1368DR,7697,10776,15346,0.070,551
2019-10-03T12:42:54,42.805,6.029,CST-1368DR,7697,10778,15349,0.069,551
2019-10-03T12:45:56,42.805,6.029,CST-1368DR,7698,10778,15348,0.069,551
2019-10-03T12:48:57,42.805,6.029,CST-1368DR,7697,10777,15348,0.069,551
2019-10-03T12:51:59,42.805,6.029,CST-1368DR,7697,10773,15343,0.071,551
2019-10-03T12:55:01,42.805,6.029,CST-1368DR,7697,10777,15348,0.069,551
2019-10-03T12:58:03,42.805,6.029,CST-1368DR,7697,10778,15349,0.069,551
2019-10-03T13:01:04,42.805,6.029,CST-1368DR,7697,10776,15346,0.070,551
2019-10-03T13:04:06,42.805,6.029,CST-1368DR,7697,10778,15350,0.069,551
2019-10-03T13:07:08,42.805,6.029,CST-1368DR,7697,10778,15349,0.069,551
2019-10-03T13:10:09,42.805,6.029,CST-1368DR,7697,10777,15348,0.069,551
2019-10-03T13:13:11,42.805,6.029,CST-1368DR,7697,10777,15347,0.070,551
2019-10-03T13:16:12,42.805,6.029,CST-1368DR,7697,10777,15348,0.069,551
2019-10-03T13:19:14,42.805,6.029,CST-1368DR,7693,10503,14965,0.170,551
2019-10-03T13:22:16,42.805,6.029,CST-1368DR,7697,10777,15348,0.069,550
2019-10-03T13:25:17,42.805,6.029,CST-1368DR,7697,10778,15350,0.069,550
2019-10-03T13:28:19,42.805,6.029,CST-1368DR,7697,10778,15349,0.069,551
2019-10-03T13:31:21,42.805,6.029,CST-1368DR,7697,10778,15350,0.069,551
2019-10-03T13:34:22,42.805,6.029,CST-1368DR,7697,10778,15349,0.069,551
2019-10-03T13:37:24,42.805,6.029,CST-1368DR,7697,10779,15351,0.068,551
2019-10-03T13:40:25,42.805,6.029,CST-1368DR,7697,10779,15350,0.069,551
2019-10-03T13:43:27,42.805,6.029,CST-1368DR,7697,10777,15348,0.069,551
2019-10-03T13:46:29,42.805,6.029,CST-1368DR,7697,10778,15350,0.069,551
2019-10-03T13:49:30,42.805,6.029,CST-1368DR,7697,10778,15349,0.069,551
2019-10-03T13:52:32,42.805,6.029,CST-1368DR,7697,10778,15350,0.069,551
2019-10-03T13:55:34,42.805,6.029,CST-1368DR,7697,10779,15350,0.069,551
2019-10-03T13:58:36,42.805,6.029,CST-1368DR,7697,10778,15350,0.069,550
2019-10-03T14:01:38,42.805,6.029,CST-1368DR,7697,10775,15345,0.070,551
2019-10-03T14:04:39,42.805,6.029,CST-1368DR,7697,10779,15351,0.068,551
2019-10-03T14:07:41,42.805,6.029,CST-1368DR,7697,10776,15347,0.070,551
2019-10-03T14:10:43,42.805,6.029,CST-1368DR,7697,10779,15351,0.068,551
2019-10-03T14:13:44,42.805,6.029,CST-1368DR,7697,10776,15347,0.070,551
2019-10-03T14:16:46,42.805,6.029,CST-1368DR,7697,10778,15350,0.069,551
2019-10-03T14:19:48,42.805,6.029,CST-1368DR,7697,10780,15352,0.068,551
2019-10-03T14:22:49,42.805,6.029,CST-1368DR,7697,10778,15350,0.069,551
2019-10-03T14:25:51,42.805,6.029,CST-1368DR,7697,10779,15350,0.069,551
2019-10-03T14:28:52,42.805,6.029,CST-1368DR,7697,10777,15348,0.069,551
2019-10-03T14:31:54,42.805,6.029,CST-1368DR,7697,10778,15349,0.069,551
2019-10-03T14:34:56,42.805,6.029,CST-1368DR,7697,10778,15349,0.069,551
2019-10-03T14:37:57,42.805,6.029,CST-1368DR,7697,10778,15350,0.069,551
2019-10-03T14:40:59,42.805,6.029,CST-1368DR,7696,10753,15315,0.078,551
2019-10-03T14:44:01,42.805,6.029,CST-1368DR,7697,10778,15350,0.069,550
2019-10-03T14:47:02,42.805,6.029,CST-1368DR,7697,10777,15348,0.069,551
2019-10-03T14:50:04,42.805,6.029,CST-1368DR,7697,10778,15349,0.069,551
2019-10-03T14:53:05,42.805,6.029,CST-1368DR,7697,10777,15348,0.069,551
2019-10-03T14:56:07,42.805,6.029,CST-1368DR,7697,10779,15351,0.068,551
2019-10-03T14:59:09,42.805,6.029,CST-1368DR,7697,10777,15348,0.069,551
2019-10-03T15:02:10,42.805,6.029,CST-1368DR,7697,10775,15345,0.070,551
2019-10-03T15:05:12,42.805,6.029,CST-1368DR,7697,10778,15350,0.069,551
2019-10-03T15:08:14,42.805,6.029,CST-1368DR,7697,10775,15345,0.070,551
2019-10-03T15:11:15,42.805,6.029,CST-1368DR,7697,10775,15345,0.070,551
2019-10-03T15:14:17,42.805,6.029,CST-1368DR,7697,10776,15346,0.070,551
2019-10-03T15:17:18,42.805,6.029,CST-1368DR,7696,10777,15349,0.069,551
2019-10-03T15:20:20,42.805,6.029,CST-1368DR,7697,10776,15347,0.070,551
2019-10-03T15:23:22,42.805,6.029,CST-1368DR,7697,10778,15350,0.069,551
2019-10-03T15:26:23,42.805,6.029,CST-1368DR,7696,10780,15354,0.068,551
2019-10-03T15:29:25,42.805,6.029,CST-1368DR,7696,10774,15346,0.070,551
2019-10-03T15:32:27,42.805,6.029,CST-1368DR,7696,10777,15349,0.069,551
2019-10-03T15:35:28,42.805,6.029,CST-1368DR,7696,10779,15353,0.068,551
2019-10-03T15:38:30,42.805,6.029,CST-1368DR,7696,10778,15351,0.068,551
2019-10-03T15:41:31,42.805,6.029,CST-1368DR,7696,10778,15351,0.068,551
2019-10-03T15:44:33,42.805,6.029,CST-1368DR,7696,10775,15347,0.070,551
2019-10-03T15:47:35,42.805,6.029,CST-1368DR,7696,10779,15353,0.068,551
2019-10-03T15:50:36,42.805,6.029,CST-1368DR,7696,10777,15350,0.069,551
2019-10-03T15:53:38,42.805,6.029,CST-1368DR,7696,10777,15350,0.069,551
2019-10-03T15:56:40,42.805,6.029,CST-1368DR,7696,10777,15350,0.069,550
2019-10-03T15:59:41,42.805,6.029,CST-1368DR,7696,10778,15351,0.068,551
2019-10-03T16:02:43,42.805,6.029,CST-1368DR,7696,10776,15348,0.069,551
2019-10-03T16:05:45,42.805,6.029,CST-1368DR,7696,10777,15350,0.069,551
2019-10-03T16:08:46,42.805,6.029,CST-1368DR,7696,10777,15350,0.069,550
2019-10-03T16:11:48,42.805,6.029,CST-1368DR,7696,10777,15350,0.069,551
2019-10-03T16:14:50,42.805,6.029,CST-1368DR,7696,10778,15351,0.068,551
2019-10-03T16:17:51,42.805,6.029,CST-1368DR,7696,10777,15350,0.069,551
2019-10-03T16:20:53,42.805,6.029,CST-1368DR,7696,10741,15299,0.082,551
2019-10-03T16:23:54,42.805,6.029,CST-1368DR,7696,10776,15348,0.069,551
2019-10-03T16:26:56,42.805,6.029,CST-1368DR,7696,10775,15347,0.070,551
2019-10-03T16:29:58,42.805,6.029,CST-1368DR,7696,10775,15347,0.070,551
2019-10-03T16:32:59,42.805,6.029,CST-1368DR,7696,10773,15345,0.070,551
2019-10-03T16:36:01,42.805,6.029,CST-1368DR,7696,10777,15349,0.069,551
2019-10-03T16:39:03,42.805,6.029,CST-1368DR,7696,10777,15349,0.069,551